{"data":{"norad_id":59942,"intl_designator":"2024-106W","name":"STARLINK-31900","alt_names":[],"object_type":"PAYLOAD","status":"ACTIVE","operator":null,"country":"US","launch_date":"2024-06-01","launch_site_code":"AFETR","launch_vehicle":null,"mission":null,"orbit_class":"UNKNOWN","rcs_meters":null,"size_class":null,"mass_kg":null,"dimensions":null,"purposes":["comms"],"wikipedia_slug":null,"has_3d_model":false,"image_url":null,"decayed_at":null,"tle_current":{"epoch":"2026-05-25T01:00:29.162016Z","epoch_age_seconds":74698,"freshness":"FRESH","line1":"1 59942U 24106W   26145.04200419 -.00001149  00000+0 -32201-4 0  9998","line2":"2 59942  43.0045 261.0103 0002829 270.0967  89.9560 15.27581746112201","mean_motion":15.27581746,"eccentricity":0.0002829,"inclination_deg":43.0045,"raan_deg":261.0103,"arg_perigee_deg":270.0967,"mean_anomaly_deg":89.956,"bstar":-3.2201e-5,"rev_number":11220,"period_min":94.266640968358,"perigee_km":481.10283982499,"apogee_km":484.98489596004,"semimajor_km":6861.1808678925,"source":"CELESTRAK","updated_at":"2026-05-25T13:38:19.125894Z"}}}